[[{"header":{"parameterUnit":"m.s-1","parameterCategory":2,"la1":30.2991,"la2":30.254,"lo1":-89.0895,"lo2":-89.0444,"dy":0.0017,"dx":0.0017,"nx":28,"ny":28,"refTime":"2024-02-07T03:00:00:Z","depth":"0","parameterNumber":2,"parameterNumberName":"U-component_of_CURRENTS"},"data":[0,0,0,0,0,0,0,0,0,0,0,0,0,0,0,0,0,0,0,0,0,0,0,0,0,0,0,0,0,0,0,0,0,0,0,0,0,0,0,0,0,0,0,0,0,0,0,0,0,0,0,0,0,0,0,0,0,0,-0.2294,-0.2295,0,-0.2337,-0.2337,-0.2338,-0.231,-0.2309,-0.2308,-0.2307,-0.2304,-0.2305,-0.2306,0,0,0,0,0,0,0,0,0,0,0,0,0,-0.2214,-0.2215,-0.2294,-0.2295,-0.2296,-0.2337,-0.2337,-0.2338,-0.231,-0.2309,-0.2308,-0.2306,-0.2304,-0.2305,-0.2306,0,0,0,0,0,0,0,0,0,0,0,0,0,-0.2249,-0.2215,-0.2294,-0.2289,-0.2289,-0.2337,-0.2337,-0.2338,-0.2311,-0.2309,-0.2307,-0.2306,-0.2304,-0.2305,-0.2307,-0.2347,0,0,-0.2311,-0.2311,0,0,0,0,0,0,0,0,-0.2247,-0.2252,-0.2289,-0.2289,-0.2289,-0.2319,-0.2308,-0.234,-0.2311,-0.23,-0.2307,-0.2305,-0.2308,-0.2309,-0.2318,-0.2347,-0.2347,-0.2311,-0.2312,-0.2312,-0.2313,0,0,0,0,0,0,0,-0.2245,-0.225,-0.2309,-0.229,-0.229,-0.2293,-0.2296,-0.2314,-0.231,-0.2301,-0.2299,-0.2308,-0.2307,-0.2316,-0.2317,-0.2347,-0.2311,-0.2312,-0.2313,-0.2314,-0.2376,-0.2377,0,0,0,0,0,0,-0.2245,-0.2248,-0.2308,-0.231,-0.2267,-0.2296,-0.2299,-0.2309,-0.231,-0.231,-0.231,-0.2307,-0.2315,-0.2316,-0.2317,-0.2343,-0.2312,-0.2314,-0.2314,-0.2375,-0.2376,-0.2377,0,0,0,0,0,0,-0.2243,-0.225,-0.2306,-0.2282,-0.2289,-0.2299,-0.2311,-0.2311,-0.2313,-0.2318,-0.2316,-0.231,-0.2314,-0.2315,-0.2327,-0.2344,-0.2314,-0.2316,-0.2374,-0.2376,-0.2377,-0.241,0,0,0,0,0,0,-0.2241,-0.2249,-0.2254,-0.2282,-0.2291,-0.2329,-0.2312,-0.2313,-0.2322,-0.2319,-0.2319,-0.2317,-0.2312,-0.2325,-0.2328,-0.2345,-0.2317,-0.2373,-0.2375,-0.2376,-0.2408,-0.2412,-0.2416,0,0,0,0,0,-0.2238,-0.225,-0.2254,-0.2261,-0.2298,-0.233,-0.2335,-0.2334,-0.2324,-0.2329,-0.2326,-0.2317,-0.2337,-0.2327,-0.2331,-0.2348,-0.2372,-0.2374,-0.2376,-0.2406,-0.2411,-0.2416,0,0,0,0,0,0,-0.2213,-0.225,-0.2254,-0.2275,-0.2299,-0.2326,-0.2331,-0.2338,-0.2343,-0.2335,-0.2331,-0.2331,-0.2348,-0.2346,-0.2335,-0.237,-0.2352,-0.2355,-0.2374,-0.2379,-0.2383,-0.2377,-0.2318,0,0,0,0,0,-0.2214,-0.2229,-0.2266,-0.2279,-0.2293,-0.2314,-0.2326,-0.2332,-0.2344,-0.2344,-0.2346,-0.2349,-0.2364,-0.2366,-0.2377,-0.24,-0.237,-0.2413,-0.2417,-0.242,-0.2418,-0.2409,-0.2412,-0.2383,-0.2383,-0.2383,0,0,-0.2205,-0.2228,-0.2235,-0.2275,-0.229,-0.2323,-0.2315,-0.2337,-0.2359,-0.2345,-0.2363,-0.2366,-0.2374,-0.2396,-0.2403,-0.2392,-0.2404,-0.2422,-0.2425,-0.2422,-0.2412,-0.2414,-0.2417,-0.2384,-0.2384,-0.2384,0,0,-0.2206,-0.2219,-0.2239,-0.2266,-0.2301,-0.2321,-0.2329,-0.236,-0.2364,-0.2393,-0.2387,-0.2398,-0.2419,-0.2427,-0.2435,-0.247,-0.2429,-0.2472,-0.2487,-0.2479,-0.2481,-0.2482,-0.2409,-0.2404,-0.2471,-0.2471,-0.2471,0,-0.2193,-0.2225,-0.2248,-0.2281,-0.2301,-0.2322,-0.2351,-0.2373,-0.2402,-0.2408,-0.2397,-0.2429,-0.2436,-0.2465,-0.2475,-0.248,-0.2443,-0.2468,-0.2483,-0.2484,-0.2485,-0.241,-0.2404,-0.2473,-0.2473,-0.2473,-0.2473,0,-0.222,-0.2244,-0.2257,-0.2305,-0.2332,-0.2356,-0.2398,-0.2418,-0.2425,-0.2443,-0.2465,-0.2474,-0.2486,-0.2498,-0.2498,-0.2516,-0.2473,-0.2491,-0.2468,-0.249,-0.2409,-0.2402,-0.2476,-0.2475,-0.2475,-0.2474,0,0,-0.2184,-0.226,-0.2262,-0.2284,-0.2343,-0.2366,-0.2411,-0.245,-0.2466,-0.249,-0.2501,-0.2537,-0.2529,-0.2537,-0.2539,-0.2536,-0.2504,-0.2515,-0.2514,-0.2436,-0.243,-0.2314,-0.2295,-0.2524,-0.2524,-0.2524,-0.2355,0,-0.2189,-0.2246,-0.2286,-0.233,-0.2358,-0.2399,-0.2434,-0.2473,-0.2496,-0.2513,-0.2527,-0.254,-0.2549,-0.2546,-0.255,-0.2534,-0.2493,-0.2544,-0.2425,-0.242,-0.2313,-0.2287,-0.2207,-0.2045,-0.2348,-0.2347,-0.2346,0,-0.2192,-0.2232,-0.2276,-0.2334,-0.2349,-0.238,-0.2425,-0.2464,-0.2507,-0.2517,-0.2538,-0.2546,-0.2559,-0.2552,-0.2515,-0.2545,-0.2479,-0.245,-0.2444,-0.2322,-0.2294,-0.2081,-0.202,-0.2018,-0.2335,-0.2336,-0.2336,0,-0.2139,-0.2213,-0.2241,-0.2265,-0.2345,-0.2363,-0.24,-0.2455,-0.2482,-0.2513,-0.2523,-0.2541,-0.2536,-0.2503,-0.2447,-0.2481,-0.2367,-0.2407,-0.2222,-0.221,-0.2111,-0.2091,-0.2032,-0.2337,-0.2337,-0.2338,-0.2338,0,-0.2118,-0.2137,-0.2216,-0.2235,-0.2259,-0.2328,-0.2353,-0.2395,-0.2447,-0.2458,-0.2512,-0.2509,-0.2527,-0.2476,-0.2423,-0.2281,-0.2339,-0.2199,-0.2165,-0.2115,-0.2098,-0.2067,-0.2113,-0.2331,-0.2333,-0.2334,-0.2335,0,-0.2045,-0.2104,-0.2135,-0.2214,-0.2234,-0.2247,-0.2322,-0.2337,-0.2404,-0.2419,-0.2427,-0.2476,-0.2401,-0.2361,-0.2278,-0.2226,-0.2073,-0.2035,-0.1937,-0.1894,-0.1748,-0.1799,-0.1698,-0.1642,-0.1822,-0.1818,-0.1815,0,-0.201,-0.202,-0.2094,-0.2102,-0.2133,-0.2172,-0.2189,-0.2286,-0.2309,-0.2381,-0.2371,-0.2336,-0.2264,-0.2098,-0.1986,-0.1819,-0.1872,-0.1666,-0.1731,-0.17,-0.1734,-0.1796,-0.1764,-0.1593,-0.1588,-0.1584,-0.1581,0,-0.1931,-0.1953,-0.1981,-0.2001,-0.202,-0.2053,-0.2097,-0.2118,-0.2211,-0.2224,-0.2208,-0.2163,-0.2012,-0.1832,-0.1643,-0.1555,-0.1654,-0.1578,-0.1598,-0.1578,-0.1593,-0.1535,-0.1708,-0.1546,-0.155,-0.1552,-0.1554,-0.1556,-0.1847,-0.1838,-0.1866,-0.1873,-0.1899,-0.191,-0.1885,-0.1939,-0.1949,-0.1932,-0.1987,-0.1872,-0.1762,-0.1489,-0.1384,-0.1235,-0.1334,-0.1235,-0.1297,-0.1362,-0.1322,-0.1376,-0.1159,-0.116,-0.1161,-0.1162,-0.1163,0,-0.1727,-0.1731,-0.1733,-0.1738,-0.171,-0.1771,-0.1791,-0.1738,-0.1684,-0.1691,-0.1632,-0.1517,-0.1339,-0.125,-0.1094,-0.1014,-0.1017,-0.1008,-0.1118,-0.1096,-0.1168,-0.1173,-0.0887,-0.0887,-0.0887,-0.0887,-0.0887,-0.0888,-0.1663,-0.1621,-0.1627,-0.1543,-0.1538,-0.1453,-0.143,-0.1372,-0.1351,-0.1237,-0.1181,-0.1172,-0.115,-0.1202,-0.1069,-0.099,-0.1,-0.095,-0.0985,-0.1096,-0.1125,-0.1152,-0.1167,-0.0885,-0.0885,-0.0873,-0.0873,-0.0873]},{"header":{"parameterUnit":"m.s-1","parameterCategory":2,"la1":30.2991,"la2":30.254,"lo1":-89.0895,"lo2":-89.0444,"dy":0.0017,"dx":0.0017,"nx":28,"ny":28,"refTime":"2024-02-07T03:00:00:Z","depth":"0","parameterNumber":3,"parameterNumberName":"V-component_of_CURRENTS"},"data":[0,0,0,0,0,0,0,0,0,0,0,0,0,0,0,0,0,0,0,0,0,0,0,0,0,0,0,0,0,0,0,0,0,0,0,0,0,0,0,0,0,0,0,0,0,0,0,0,0,0,0,0,0,0,0,0,0,0,-0.047,-0.047,0,-0.0414,-0.0414,-0.0413,-0.0369,-0.0368,-0.0368,-0.0368,-0.0242,-0.0239,-0.0236,0,0,0,0,0,0,0,0,0,0,0,0,0,-0.0491,-0.0491,-0.047,-0.047,-0.0469,-0.0414,-0.0414,-0.0413,-0.0369,-0.0368,-0.0368,-0.0367,-0.0243,-0.024,-0.0236,0,0,0,0,0,0,0,0,0,0,0,0,0,-0.0462,-0.0491,-0.047,-0.0441,-0.0438,-0.0415,-0.0414,-0.0412,-0.0369,-0.0368,-0.0368,-0.0367,-0.0244,-0.024,-0.0236,-0.0218,0,0,-0.0222,-0.022,0,0,0,0,0,0,0,0,-0.0464,-0.0461,-0.0446,-0.0443,-0.044,-0.0399,-0.0375,-0.0344,-0.0369,-0.0394,-0.0368,-0.0367,-0.0289,-0.0281,-0.0271,-0.0212,-0.0207,-0.0221,-0.0219,-0.0217,-0.0215,0,0,0,0,0,0,0,-0.0466,-0.0463,-0.0447,-0.0445,-0.0442,-0.0414,-0.041,-0.0369,-0.0343,-0.0392,-0.0389,-0.0384,-0.0287,-0.0276,-0.0268,-0.0205,-0.0222,-0.0218,-0.0215,-0.0213,-0.0111,-0.0111,0,0,0,0,0,0,-0.0478,-0.0466,-0.0449,-0.0446,-0.0452,-0.0415,-0.041,-0.0412,-0.0345,-0.0335,-0.0385,-0.0382,-0.0284,-0.0273,-0.0263,-0.0237,-0.0217,-0.0213,-0.021,-0.0111,-0.0111,-0.0111,0,0,0,0,0,0,-0.0479,-0.0477,-0.0451,-0.0454,-0.0449,-0.0415,-0.0417,-0.0411,-0.04,-0.0341,-0.0329,-0.0381,-0.0283,-0.0269,-0.0231,-0.0232,-0.021,-0.0206,-0.0111,-0.0111,-0.0111,-0.0186,0,0,0,0,0,0,-0.048,-0.0478,-0.0484,-0.0456,-0.045,-0.0444,-0.0418,-0.041,-0.0398,-0.0395,-0.0333,-0.0321,-0.0281,-0.0238,-0.0227,-0.0225,-0.0203,-0.0111,-0.0111,-0.0111,-0.0183,-0.0188,-0.0192,0,0,0,0,0,-0.0481,-0.0494,-0.0485,-0.0482,-0.0459,-0.0445,-0.044,-0.0412,-0.0399,-0.0399,-0.0358,-0.0323,-0.023,-0.0235,-0.0221,-0.0218,-0.0111,-0.0111,-0.0111,-0.0181,-0.0187,-0.0192,0,0,0,0,0,0,-0.0505,-0.049,-0.0479,-0.0487,-0.047,-0.0438,-0.0437,-0.0418,-0.0387,-0.0381,-0.0324,-0.031,-0.0277,-0.0237,-0.0244,-0.0188,-0.0164,-0.0161,-0.0222,-0.0227,-0.0231,-0.0244,-0.0199,0,0,0,0,0,-0.0515,-0.0521,-0.0498,-0.0505,-0.0499,-0.0469,-0.046,-0.0443,-0.0412,-0.0398,-0.0356,-0.0308,-0.0267,-0.024,-0.02,-0.0169,-0.0113,-0.0157,-0.0161,-0.0166,-0.0166,-0.0081,-0.0078,-0.0111,-0.0111,-0.0111,0,0,-0.0526,-0.0518,-0.0522,-0.051,-0.0495,-0.0498,-0.0462,-0.0455,-0.0451,-0.0388,-0.0369,-0.0325,-0.0263,-0.0232,-0.0213,-0.0198,-0.0128,-0.0166,-0.017,-0.0168,-0.008,-0.0077,-0.0074,-0.0111,-0.0111,-0.0111,0,0,-0.0559,-0.0546,-0.0565,-0.0556,-0.054,-0.0521,-0.0523,-0.0494,-0.0474,-0.0451,-0.0405,-0.0362,-0.0303,-0.0257,-0.0226,-0.0229,-0.0159,-0.0217,-0.0244,-0.0162,-0.0159,-0.0155,-0.0086,-0.0076,-0.0215,-0.0215,-0.0215,0,-0.0573,-0.0594,-0.0567,-0.0582,-0.058,-0.0537,-0.0555,-0.0529,-0.0491,-0.0471,-0.0455,-0.0362,-0.0313,-0.0262,-0.0266,-0.0239,-0.0185,-0.0232,-0.0168,-0.0163,-0.0158,-0.0088,-0.0076,-0.0218,-0.0218,-0.0218,-0.0217,0,-0.0622,-0.0634,-0.0644,-0.0649,-0.0642,-0.0649,-0.0614,-0.0596,-0.0566,-0.0534,-0.0482,-0.0414,-0.0356,-0.0334,-0.0301,-0.0243,-0.0215,-0.0189,-0.0157,-0.0159,-0.0086,-0.0071,-0.0224,-0.0222,-0.0221,-0.022,0,0,-0.066,-0.0677,-0.0679,-0.0693,-0.0678,-0.0678,-0.0666,-0.064,-0.0624,-0.0573,-0.0542,-0.047,-0.0426,-0.0388,-0.0333,-0.0263,-0.0184,-0.0218,-0.0212,-0.0156,-0.0006,0.0012,0.003,-0.0145,-0.0143,-0.0141,0.0027,0,-0.0706,-0.0755,-0.0743,-0.0778,-0.0799,-0.0755,-0.0751,-0.0715,-0.0666,-0.0623,-0.0536,-0.0491,-0.0447,-0.0418,-0.0342,-0.0222,-0.0148,-0.0232,-0.0007,-0.0001,0.0012,0.0047,0.0096,0.0251,0.0042,0.0044,0.0046,0,-0.0757,-0.0783,-0.0833,-0.0846,-0.0849,-0.0857,-0.0828,-0.0815,-0.0736,-0.0694,-0.0622,-0.0555,-0.0454,-0.0416,-0.0208,-0.0263,-0.0145,-0.005,-0.004,0.0014,0.0045,0.0222,0.0286,0.0433,0.0069,0.0068,0.0066,0,-0.0805,-0.084,-0.0884,-0.089,-0.0899,-0.09,-0.0892,-0.0837,-0.0817,-0.0731,-0.0698,-0.0575,-0.0499,-0.0343,-0.016,-0.0175,0.0078,0.0088,0.0217,0.0219,0.0325,0.0332,0.0555,0.0241,0.024,0.024,0.024,0,-0.0861,-0.0892,-0.091,-0.0935,-0.0975,-0.0954,-0.0964,-0.093,-0.0871,-0.0841,-0.0738,-0.0672,-0.0473,-0.0314,-0.0156,0.0078,0.0089,0.0224,0.0272,0.0298,0.0301,0.0484,0.0531,0.0246,0.0245,0.0244,0.0243,0,-0.0911,-0.0926,-0.0977,-0.0998,-0.1004,-0.103,-0.1024,-0.1019,-0.0955,-0.0904,-0.0881,-0.0719,-0.0503,-0.0302,-0.0029,0.0092,0.0409,0.0382,0.0387,0.043,0.0657,0.0696,0.096,0.1061,0.055,0.0551,0.0553,0,-0.0943,-0.0977,-0.1026,-0.1059,-0.1071,-0.1098,-0.1111,-0.1068,-0.1052,-0.0924,-0.0898,-0.0693,-0.0529,-0.0138,0.012,0.0406,0.0523,0.0598,0.0574,0.0692,0.0772,0.0797,0.0864,0.0692,0.0695,0.0697,0.0698,0,-0.1,-0.1016,-0.106,-0.1125,-0.1157,-0.1191,-0.1196,-0.1193,-0.1121,-0.1047,-0.0899,-0.0755,-0.0381,-0.0035,0.0311,0.0485,0.0711,0.0644,0.0794,0.0924,0.0945,0.1056,0.0542,0.0715,0.0714,0.0712,0.0712,0.0711,-0.1033,-0.1079,-0.113,-0.1189,-0.1233,-0.1261,-0.1267,-0.1232,-0.1182,-0.103,-0.0904,-0.0638,-0.0167,0.0338,0.0526,0.0916,0.0877,0.1038,0.1083,0.1104,0.1181,0.0681,0.0878,0.0878,0.0877,0.0876,0.0876,0,-0.1069,-0.1117,-0.1183,-0.1251,-0.1298,-0.1302,-0.1305,-0.1265,-0.1175,-0.0991,-0.081,-0.0283,0.0176,0.0598,0.1125,0.1338,0.1399,0.1453,0.1527,0.1582,0.1188,0.1171,0.1407,0.1407,0.1406,0.1406,0.1406,0.1406,-0.109,-0.116,-0.1194,-0.1282,-0.1323,-0.134,-0.133,-0.1237,-0.1097,-0.0752,-0.044,-0.0189,0.038,0.1192,0.1678,0.1741,0.1935,0.1928,0.2018,0.1755,0.172,0.1686,0.1686,0.2025,0.2026,0.2421,0.2425,0.2428]}],[{"header":{"parameterUnit":"m.s-1","parameterCategory":2,"la1":30.2991,"la2":30.254,"lo1":-89.0895,"lo2":-89.0444,"dy":0.0017,"dx":0.0017,"nx":28,"ny":28,"refTime":"2024-02-07T03:00:00:Z","depth":"2","parameterNumber":2,"parameterNumberName":"U-component_of_CURRENTS"},"data":[0,0,0,0,0,0,0,0,0,0,0,0,0,0,0,0,0,0,0,0,0,0,0,0,0,0,0,0,0,0,0,0,0,0,0,0,0,0,0,0,0,0,0,0,0,0,0,0,0,0,0,0,0,0,0,0,0,0,-0.2088,-0.2088,0,-0.2128,-0.2128,-0.2128,-0.2109,-0.2108,-0.2108,-0.2107,-0.2105,-0.2105,-0.2106,0,0,0,0,0,0,0,0,0,0,0,0,0,-0.2017,-0.2018,-0.2088,-0.2088,-0.2089,-0.2128,-0.2128,-0.2128,-0.2109,-0.2108,-0.2107,-0.2106,-0.2104,-0.2105,-0.2106,0,0,0,0,0,0,0,0,0,0,0,0,0,-0.2049,-0.2018,-0.2088,-0.2086,-0.2086,-0.2128,-0.2128,-0.2128,-0.211,-0.2108,-0.2107,-0.2106,-0.2104,-0.2105,-0.2106,-0.2138,0,0,-0.2109,-0.211,0,0,0,0,0,0,0,0,-0.2048,-0.2052,-0.2085,-0.2086,-0.2086,-0.2114,-0.2102,-0.213,-0.211,-0.2099,-0.2107,-0.2105,-0.2106,-0.2107,-0.2115,-0.2138,-0.2138,-0.211,-0.211,-0.2111,-0.2111,0,0,0,0,0,0,0,-0.2045,-0.205,-0.2102,-0.2086,-0.2087,-0.2091,-0.2093,-0.2108,-0.2107,-0.21,-0.2099,-0.2107,-0.2105,-0.2114,-0.2115,-0.2138,-0.211,-0.211,-0.2111,-0.2112,-0.2173,-0.2174,0,0,0,0,0,0,-0.2045,-0.2048,-0.21,-0.2103,-0.2066,-0.2093,-0.2096,-0.2105,-0.2107,-0.2107,-0.2108,-0.2106,-0.2113,-0.2113,-0.2114,-0.2145,-0.2111,-0.2112,-0.2112,-0.2172,-0.2173,-0.2174,0,0,0,0,0,0,-0.2043,-0.2049,-0.2099,-0.2078,-0.2084,-0.2095,-0.2106,-0.2106,-0.2112,-0.2114,-0.2113,-0.2112,-0.2112,-0.2113,-0.2127,-0.2145,-0.2112,-0.2113,-0.2171,-0.2172,-0.2174,-0.2212,0,0,0,0,0,0,-0.2041,-0.2048,-0.2053,-0.2078,-0.2086,-0.2121,-0.2107,-0.2108,-0.212,-0.2117,-0.2118,-0.2117,-0.2111,-0.2126,-0.2128,-0.2146,-0.2114,-0.2169,-0.2171,-0.2173,-0.2209,-0.2214,-0.2218,0,0,0,0,0,-0.2038,-0.205,-0.2053,-0.2059,-0.2092,-0.2122,-0.2127,-0.2129,-0.2121,-0.2128,-0.2128,-0.2116,-0.2139,-0.2128,-0.213,-0.2149,-0.2169,-0.2171,-0.2173,-0.2207,-0.2213,-0.2218,0,0,0,0,0,0,-0.2019,-0.205,-0.2054,-0.2073,-0.2096,-0.2119,-0.2127,-0.2133,-0.2141,-0.2136,-0.2132,-0.2132,-0.2152,-0.2147,-0.2135,-0.2172,-0.2151,-0.2154,-0.2176,-0.2182,-0.2187,-0.2179,-0.2115,0,0,0,0,0,-0.202,-0.2033,-0.2066,-0.2078,-0.2091,-0.2111,-0.2122,-0.213,-0.2143,-0.2145,-0.2148,-0.2152,-0.2166,-0.217,-0.2179,-0.2202,-0.2175,-0.2215,-0.222,-0.2224,-0.222,-0.2201,-0.2203,-0.2181,-0.2181,-0.2181,0,0,-0.2015,-0.2033,-0.204,-0.2075,-0.209,-0.2119,-0.2113,-0.2136,-0.2158,-0.2145,-0.2166,-0.2171,-0.2177,-0.22,-0.2209,-0.2196,-0.2215,-0.2227,-0.223,-0.2224,-0.2204,-0.2206,-0.2207,-0.2183,-0.2182,-0.2182,0,0,-0.2017,-0.203,-0.2046,-0.2071,-0.2103,-0.2121,-0.213,-0.2161,-0.2168,-0.2197,-0.2193,-0.2207,-0.2227,-0.2234,-0.2241,-0.2279,-0.2243,-0.2284,-0.23,-0.2282,-0.2283,-0.2284,-0.2245,-0.2241,-0.2283,-0.2283,-0.2283,0,-0.2008,-0.2034,-0.2055,-0.2083,-0.2102,-0.2124,-0.2151,-0.2174,-0.2204,-0.2211,-0.2205,-0.2238,-0.2245,-0.2271,-0.2285,-0.229,-0.2262,-0.2278,-0.2287,-0.2287,-0.2287,-0.2246,-0.2242,-0.2286,-0.2285,-0.2285,-0.2285,0,-0.2031,-0.2052,-0.2064,-0.2105,-0.2132,-0.2155,-0.2195,-0.2218,-0.223,-0.2247,-0.2272,-0.2283,-0.2296,-0.2308,-0.2311,-0.2324,-0.2297,-0.2296,-0.2269,-0.2291,-0.2247,-0.2242,-0.2289,-0.2288,-0.2287,-0.2287,0,0,-0.2001,-0.2065,-0.2068,-0.2087,-0.2143,-0.2165,-0.2209,-0.2247,-0.2264,-0.2292,-0.2304,-0.2342,-0.2337,-0.2345,-0.2349,-0.234,-0.2322,-0.2319,-0.2317,-0.2273,-0.226,-0.2158,-0.2143,-0.2318,-0.2317,-0.2317,-0.2225,0,-0.2005,-0.2053,-0.2088,-0.2129,-0.2154,-0.2194,-0.2228,-0.2268,-0.2292,-0.2312,-0.2328,-0.2344,-0.2355,-0.2357,-0.2355,-0.2334,-0.2312,-0.2346,-0.225,-0.2247,-0.2149,-0.2135,-0.1998,-0.1897,-0.222,-0.2219,-0.2219,0,-0.2006,-0.204,-0.208,-0.2132,-0.2146,-0.2177,-0.2222,-0.2259,-0.2302,-0.2316,-0.2339,-0.2349,-0.236,-0.2355,-0.2323,-0.2341,-0.2302,-0.2278,-0.2274,-0.216,-0.2136,-0.193,-0.1876,-0.221,-0.2211,-0.2212,-0.2212,0,-0.1961,-0.2026,-0.205,-0.2073,-0.2144,-0.2163,-0.2199,-0.2252,-0.2278,-0.2314,-0.2324,-0.234,-0.2337,-0.231,-0.2275,-0.2295,-0.2211,-0.2231,-0.2098,-0.209,-0.1944,-0.1923,-0.2187,-0.2187,-0.2188,-0.2188,-0.2188,0,-0.1941,-0.1958,-0.203,-0.2046,-0.207,-0.2133,-0.2158,-0.2199,-0.225,-0.2258,-0.2315,-0.2309,-0.2324,-0.2289,-0.2257,-0.2147,-0.2192,-0.2084,-0.2056,-0.1952,-0.1934,-0.2189,-0.219,-0.2184,-0.2185,-0.2186,-0.2186,0,-0.1876,-0.1928,-0.1955,-0.2027,-0.2047,-0.2062,-0.2131,-0.2144,-0.2209,-0.2219,-0.2228,-0.2276,-0.2218,-0.2205,-0.2143,-0.2102,-0.2022,-0.1968,-0.1833,-0.179,-0.1919,-0.1924,-0.1815,-0.1811,-0.1807,-0.1804,-0.1801,0,-0.1845,-0.1854,-0.192,-0.1929,-0.1957,-0.1995,-0.2011,-0.2099,-0.2117,-0.2178,-0.2164,-0.215,-0.2091,-0.1975,-0.1887,-0.1778,-0.1884,-0.1611,-0.163,-0.1895,-0.188,-0.1891,-0.19,-0.1452,-0.1446,-0.1442,-0.1438,0,-0.1776,-0.1797,-0.182,-0.1838,-0.1856,-0.1883,-0.1921,-0.1933,-0.2012,-0.2022,-0.2003,-0.1967,-0.1862,-0.1689,-0.1573,-0.1507,-0.1623,-0.1517,-0.1813,-0.157,-0.1545,-0.1533,-0.1556,-0.14,-0.1404,-0.1407,-0.1409,-0.141,-0.1705,-0.1696,-0.172,-0.1725,-0.1747,-0.1749,-0.1721,-0.1761,-0.1761,-0.1732,-0.1784,-0.1671,-0.1639,-0.1369,-0.1268,-0.1198,-0.1318,-0.1289,-0.1305,-0.1325,-0.1303,-0.1273,-0.1071,-0.1073,-0.1074,-0.1076,-0.1077,0,-0.1602,-0.1602,-0.1603,-0.1601,-0.1571,-0.1629,-0.1631,-0.1573,-0.1508,-0.15,-0.1446,-0.1261,-0.1128,-0.1102,-0.0919,-0.0876,-0.0901,-0.0857,-0.0907,-0.0944,-0.0978,-0.0942,-0.0612,-0.0611,-0.0609,-0.0608,0,0,-0.1547,-0.1507,-0.1507,-0.1424,-0.1416,-0.1332,-0.1302,-0.1235,-0.1201,-0.1091,-0.1025,-0.106,-0.1069,-0.0849,-0.0787,-0.0673,-0.0809,-0.0634,-0.1006,-0.1103,-0.1135,-0.1219,-0.1202,0,0,0,0,0]},{"header":{"parameterUnit":"m.s-1","parameterCategory":2,"la1":30.2991,"la2":30.254,"lo1":-89.0895,"lo2":-89.0444,"dy":0.0017,"dx":0.0017,"nx":28,"ny":28,"refTime":"2024-02-07T03:00:00:Z","depth":"2","parameterNumber":3,"parameterNumberName":"V-component_of_CURRENTS"},"data":[0,0,0,0,0,0,0,0,0,0,0,0,0,0,0,0,0,0,0,0,0,0,0,0,0,0,0,0,0,0,0,0,0,0,0,0,0,0,0,0,0,0,0,0,0,0,0,0,0,0,0,0,0,0,0,0,0,0,-0.0295,-0.0294,0,-0.0247,-0.0246,-0.0245,-0.0206,-0.0205,-0.0205,-0.0205,-0.0094,-0.0091,-0.0088,0,0,0,0,0,0,0,0,0,0,0,0,0,-0.0308,-0.0308,-0.0295,-0.0294,-0.0294,-0.0247,-0.0246,-0.0245,-0.0206,-0.0205,-0.0205,-0.0205,-0.0094,-0.0091,-0.0088,0,0,0,0,0,0,0,0,0,0,0,0,0,-0.0285,-0.0308,-0.0295,-0.0269,-0.0266,-0.0247,-0.0246,-0.0245,-0.0206,-0.0205,-0.0205,-0.0204,-0.0096,-0.0092,-0.0088,-0.0073,0,0,-0.0076,-0.0074,0,0,0,0,0,0,0,0,-0.0286,-0.0284,-0.0273,-0.0271,-0.0268,-0.0232,-0.021,-0.0185,-0.0206,-0.0228,-0.0205,-0.0204,-0.0135,-0.0128,-0.012,-0.0068,-0.0063,-0.0075,-0.0073,-0.0071,-0.007,0,0,0,0,0,0,0,-0.0288,-0.0286,-0.0275,-0.0273,-0.0269,-0.0245,-0.0241,-0.0205,-0.0183,-0.0226,-0.0223,-0.0219,-0.0133,-0.0124,-0.0116,-0.0062,-0.0075,-0.0072,-0.0069,-0.0068,0.0017,0.0017,0,0,0,0,0,0,-0.0298,-0.0288,-0.0276,-0.0273,-0.0277,-0.0245,-0.0241,-0.0244,-0.0185,-0.0176,-0.022,-0.0218,-0.0131,-0.0121,-0.0112,-0.0092,-0.0071,-0.0067,-0.0065,0.0017,0.0017,0.0017,0,0,0,0,0,0,-0.0299,-0.0298,-0.0278,-0.0279,-0.0275,-0.0246,-0.0249,-0.0243,-0.0234,-0.0181,-0.0171,-0.0217,-0.013,-0.0118,-0.0085,-0.0087,-0.0066,-0.0062,0.0017,0.0017,0.0017,-0.005,0,0,0,0,0,0,-0.03,-0.0299,-0.0305,-0.0281,-0.0276,-0.0274,-0.0249,-0.0242,-0.0233,-0.023,-0.0175,-0.0164,-0.0129,-0.0092,-0.0081,-0.0081,-0.0059,0.0017,0.0017,0.0017,-0.0048,-0.0052,-0.0056,0,0,0,0,0,-0.0301,-0.0314,-0.0306,-0.0304,-0.0285,-0.0274,-0.027,-0.0246,-0.0233,-0.0235,-0.0198,-0.0166,-0.0086,-0.0089,-0.0077,-0.0075,0.0017,0.0017,0.0017,-0.0046,-0.0051,-0.0056,0,0,0,0,0,0,-0.0323,-0.031,-0.0301,-0.031,-0.0296,-0.0268,-0.0268,-0.0251,-0.0224,-0.022,-0.0168,-0.0155,-0.0128,-0.0093,-0.0098,-0.0051,-0.0028,-0.0026,-0.008,-0.0085,-0.0089,-0.01,-0.0056,0,0,0,0,0,-0.0332,-0.0338,-0.0319,-0.0327,-0.0322,-0.0296,-0.0289,-0.0274,-0.0247,-0.0235,-0.0198,-0.0156,-0.0121,-0.0097,-0.0063,-0.0036,0.0008,-0.0026,-0.0031,-0.0035,-0.0036,0.003,0.0032,0.0016,0.0016,0.0016,0,0,-0.0342,-0.0336,-0.034,-0.0332,-0.0318,-0.0322,-0.029,-0.0286,-0.0283,-0.0226,-0.0211,-0.0173,-0.0119,-0.0093,-0.0076,-0.0062,-0.0009,-0.0035,-0.0039,-0.0037,0.003,0.0032,0.0033,0.0016,0.0016,0.0016,0,0,-0.0371,-0.0362,-0.038,-0.0372,-0.036,-0.0344,-0.0346,-0.0322,-0.0305,-0.0287,-0.0245,-0.0208,-0.0158,-0.0117,-0.009,-0.0096,-0.0039,-0.0086,-0.0111,-0.0048,-0.0046,-0.0044,0.0004,0.0011,-0.0083,-0.0083,-0.0084,0,-0.0384,-0.0404,-0.0382,-0.0396,-0.0395,-0.0359,-0.0375,-0.0353,-0.0321,-0.0304,-0.0291,-0.0212,-0.0168,-0.0124,-0.0128,-0.0105,-0.0066,-0.0098,-0.0054,-0.0051,-0.0047,0.0002,0.001,-0.0087,-0.0086,-0.0086,-0.0086,0,-0.0427,-0.044,-0.0449,-0.0455,-0.045,-0.0458,-0.0429,-0.0415,-0.039,-0.0363,-0.032,-0.026,-0.021,-0.0191,-0.0161,-0.0117,-0.0097,-0.0072,-0.0043,-0.005,0.0002,0.0012,-0.0091,-0.009,-0.0089,-0.0088,0,0,-0.0461,-0.0477,-0.048,-0.0493,-0.0483,-0.0484,-0.0476,-0.0455,-0.0444,-0.0401,-0.0376,-0.0314,-0.0276,-0.0242,-0.0194,-0.0138,-0.0084,-0.0101,-0.0096,-0.0059,0.0047,0.0066,0.008,-0.0051,-0.0049,-0.0048,0.0069,0,-0.05,-0.0544,-0.0536,-0.0569,-0.0589,-0.0553,-0.0552,-0.0524,-0.0483,-0.0448,-0.0373,-0.0334,-0.0296,-0.027,-0.021,-0.0114,-0.0058,-0.0118,0.0053,0.0058,0.0072,0.0092,0.0078,0.0182,0.008,0.0082,0.0083,0,-0.0544,-0.0569,-0.0615,-0.063,-0.0634,-0.0644,-0.0624,-0.0614,-0.0549,-0.0515,-0.0455,-0.0395,-0.0312,-0.0277,-0.0117,-0.0158,-0.0065,0.0011,0.0018,0.0068,0.0097,0.0176,0.0206,0.0101,0.0099,0.0098,0.0097,0,-0.0586,-0.0619,-0.066,-0.0666,-0.0679,-0.0683,-0.0679,-0.0635,-0.0622,-0.0549,-0.0524,-0.0423,-0.0359,-0.0237,-0.0087,-0.0097,0.0095,0.0106,0.0211,0.0213,0.0252,0.0255,0.0224,0.0223,0.0223,0.0223,0.0223,0,-0.0633,-0.0662,-0.0683,-0.0706,-0.0746,-0.073,-0.0746,-0.0719,-0.0674,-0.0652,-0.0562,-0.0509,-0.0343,-0.0215,-0.009,0.0093,0.0098,0.0214,0.0251,0.0227,0.0226,0.0196,0.0191,0.0227,0.0226,0.0225,0.0225,0,-0.0675,-0.069,-0.0739,-0.0763,-0.0772,-0.0798,-0.0801,-0.0802,-0.0752,-0.0714,-0.0693,-0.0556,-0.0384,-0.0218,-0.0,0.0098,0.0263,0.0327,0.0277,0.0307,0.0336,0.0326,0.0452,0.0454,0.0456,0.0457,0.0458,0,-0.0703,-0.0734,-0.0785,-0.0817,-0.0831,-0.086,-0.0878,-0.0847,-0.0836,-0.0736,-0.0716,-0.0547,-0.0413,-0.0102,0.0104,0.0329,0.0329,0.0438,0.0419,0.0339,0.0363,0.0351,0.0339,0.0443,0.0444,0.0445,0.0445,0,-0.0752,-0.077,-0.0811,-0.0876,-0.091,-0.0945,-0.0956,-0.0958,-0.0903,-0.0843,-0.072,-0.0603,-0.0308,-0.0053,0.0224,0.0351,0.0395,0.0459,0.042,0.0376,0.0337,0.0358,0.0346,0.0451,0.0451,0.045,0.045,0.045,-0.0781,-0.0823,-0.0873,-0.0931,-0.0976,-0.1008,-0.1016,-0.0991,-0.0952,-0.0825,-0.0727,-0.0511,-0.0289,0.0125,0.0312,0.0487,0.0479,0.0528,0.0523,0.0518,0.0485,0.045,0.0579,0.0579,0.0579,0.0579,0.0579,0,-0.0812,-0.0856,-0.0919,-0.0985,-0.103,-0.1041,-0.105,-0.1013,-0.0936,-0.079,-0.0639,-0.0366,-0.0096,0.0138,0.0418,0.0569,0.0552,0.0597,0.0544,0.0537,0.0531,0.0496,0.0595,0.0595,0.0596,0.0596,0,0,-0.083,-0.0892,-0.0924,-0.1007,-0.1048,-0.1068,-0.1061,-0.0978,-0.086,-0.0675,-0.0506,-0.0322,-0.0058,0.0141,0.0332,0.0478,0.0469,0.0493,0.0467,0.0377,0.0369,0.0481,0.0419,0,0,0,0,0]}],[{"header":{"parameterUnit":"m.s-1","parameterCategory":2,"la1":30.2991,"la2":30.254,"lo1":-89.0895,"lo2":-89.0444,"dy":0.0017,"dx":0.0017,"nx":28,"ny":28,"refTime":"2024-02-07T03:00:00:Z","depth":"4","parameterNumber":2,"parameterNumberName":"U-component_of_CURRENTS"},"data":[0,0,0,0,0,0,0,0,0,0,0,0,0,0,0,0,0,0,0,0,0,0,0,0,0,0,0,0,0,0,0,0,0,0,0,0,0,0,0,0,0,0,0,0,0,0,0,0,0,0,0,0,0,0,0,0,0,0,-0.1454,-0.1455,0,-0.1517,-0.1517,-0.1518,-0.1549,-0.1549,-0.1549,-0.1549,-0.1601,-0.1602,-0.1603,0,0,0,0,0,0,0,0,0,0,0,0,0,-0.1372,-0.1373,-0.1454,-0.1455,-0.1456,-0.1517,-0.1517,-0.1518,-0.1549,-0.1549,-0.1549,-0.1549,-0.16,-0.1602,-0.1603,0,0,0,0,0,0,0,0,0,0,0,0,0,-0.1417,-0.1374,-0.1454,-0.1479,-0.1482,-0.1516,-0.1517,-0.1518,-0.1549,-0.1549,-0.1549,-0.1549,-0.16,-0.1602,-0.1604,-0.1612,0,0,-0.1609,-0.161,0,0,0,0,0,0,0,0,-0.1414,-0.142,-0.1475,-0.1478,-0.1481,-0.1526,-0.1508,-0.1549,-0.1549,-0.1522,-0.1549,-0.1549,-0.1576,-0.158,-0.1589,-0.1614,-0.1616,-0.161,-0.1611,-0.1612,-0.1612,0,0,0,0,0,0,0,-0.1411,-0.1417,-0.1477,-0.1476,-0.148,-0.1492,-0.1498,-0.1516,-0.1546,-0.1524,-0.1527,-0.1536,-0.1577,-0.1587,-0.1591,-0.1617,-0.161,-0.1611,-0.1612,-0.1613,-0.1707,-0.1708,0,0,0,0,0,0,-0.1406,-0.1415,-0.1475,-0.1479,-0.1449,-0.1493,-0.15,-0.151,-0.1546,-0.1552,-0.1536,-0.1537,-0.1584,-0.1588,-0.1593,-0.1659,-0.1612,-0.1613,-0.1614,-0.1706,-0.1707,-0.1709,0,0,0,0,0,0,-0.1404,-0.141,-0.1473,-0.1449,-0.1458,-0.1494,-0.1506,-0.1512,-0.1545,-0.1555,-0.1561,-0.1566,-0.1584,-0.159,-0.1631,-0.1659,-0.1614,-0.1616,-0.1704,-0.1706,-0.1708,-0.1757,0,0,0,0,0,0,-0.1401,-0.1409,-0.1427,-0.1449,-0.1459,-0.1507,-0.1506,-0.1513,-0.155,-0.1553,-0.1582,-0.1586,-0.1585,-0.1628,-0.1633,-0.1661,-0.1617,-0.1702,-0.1705,-0.1708,-0.1754,-0.1761,-0.1767,0,0,0,0,0,-0.1398,-0.1416,-0.1427,-0.1435,-0.1478,-0.1508,-0.1515,-0.1539,-0.1551,-0.157,-0.1593,-0.1586,-0.1647,-0.1631,-0.1636,-0.1666,-0.1701,-0.1704,-0.1707,-0.1751,-0.1759,-0.1767,0,0,0,0,0,0,-0.139,-0.1421,-0.1434,-0.1462,-0.149,-0.1514,-0.1537,-0.1554,-0.1589,-0.1599,-0.1606,-0.1611,-0.1657,-0.1656,-0.1638,-0.17,-0.1672,-0.1677,-0.1704,-0.1712,-0.1718,-0.1707,-0.1619,0,0,0,0,0,-0.1396,-0.1418,-0.1448,-0.1472,-0.1489,-0.1519,-0.1539,-0.1558,-0.1586,-0.1602,-0.1624,-0.1647,-0.1671,-0.1687,-0.1706,-0.1742,-0.1715,-0.1764,-0.177,-0.1775,-0.1771,-0.1756,-0.1759,-0.1719,-0.1719,-0.1719,0,0,-0.1401,-0.1421,-0.1435,-0.1473,-0.1497,-0.1529,-0.1532,-0.1571,-0.1602,-0.1602,-0.1657,-0.1674,-0.1686,-0.1726,-0.1746,-0.1731,-0.1774,-0.1779,-0.1784,-0.1776,-0.1759,-0.1763,-0.1766,-0.1721,-0.1721,-0.172,0,0,-0.1413,-0.144,-0.1462,-0.1489,-0.1532,-0.1551,-0.1568,-0.161,-0.1636,-0.1686,-0.1694,-0.1727,-0.1768,-0.1779,-0.1788,-0.1841,-0.1808,-0.1854,-0.1878,-0.1864,-0.1866,-0.1868,-0.1837,-0.1836,-0.1856,-0.1856,-0.1856,0,-0.1419,-0.1448,-0.1473,-0.1503,-0.1529,-0.1564,-0.1596,-0.1629,-0.1681,-0.1701,-0.1711,-0.1772,-0.179,-0.1824,-0.1847,-0.1855,-0.1833,-0.1848,-0.187,-0.1872,-0.1873,-0.184,-0.1838,-0.1859,-0.1858,-0.1858,-0.1858,0,-0.1441,-0.1475,-0.1492,-0.1539,-0.1571,-0.1605,-0.165,-0.1692,-0.1729,-0.1754,-0.1806,-0.183,-0.1859,-0.1878,-0.1883,-0.1909,-0.1885,-0.1879,-0.1846,-0.1879,-0.1843,-0.184,-0.1863,-0.1862,-0.1861,-0.186,0,0,-0.1421,-0.1492,-0.1501,-0.1528,-0.1594,-0.1618,-0.1678,-0.1728,-0.176,-0.1814,-0.1844,-0.1901,-0.191,-0.1921,-0.1932,-0.193,-0.1929,-0.1914,-0.1912,-0.1874,-0.1883,-0.1751,-0.1734,-0.1925,-0.1925,-0.1925,-0.1853,0,-0.143,-0.1483,-0.152,-0.1577,-0.1606,-0.166,-0.1705,-0.1758,-0.1802,-0.1842,-0.1873,-0.1909,-0.1927,-0.1944,-0.1949,-0.1935,-0.1924,-0.1948,-0.1864,-0.1861,-0.1732,-0.1727,-0.1925,-0.1851,-0.185,-0.1849,-0.1849,0,-0.143,-0.1468,-0.1522,-0.1589,-0.1608,-0.1652,-0.1721,-0.1767,-0.1828,-0.1859,-0.1899,-0.1921,-0.1947,-0.1949,-0.1934,-0.1948,-0.1922,-0.1902,-0.1899,-0.1752,-0.1722,-0.1812,-0.1842,-0.1843,-0.1843,-0.1844,-0.1844,0,-0.1384,-0.1463,-0.1504,-0.1531,-0.1616,-0.1655,-0.1703,-0.1773,-0.1807,-0.1867,-0.1886,-0.1921,-0.1932,-0.1918,-0.1899,-0.1917,-0.1852,-0.1867,-0.1717,-0.1707,-0.1828,-0.1826,-0.1837,-0.1837,-0.1837,-0.1838,-0.1838,0,-0.1358,-0.1394,-0.1492,-0.1515,-0.1564,-0.1635,-0.1686,-0.1739,-0.1803,-0.1815,-0.1889,-0.1885,-0.1926,-0.1902,-0.1883,-0.1774,-0.1836,-0.1705,-0.1675,-0.1851,-0.1853,-0.1825,-0.1824,-0.1835,-0.1835,-0.1836,-0.1836,0,-0.1292,-0.1359,-0.141,-0.151,-0.1543,-0.1578,-0.1672,-0.1693,-0.1772,-0.1787,-0.1803,-0.1858,-0.1812,-0.1819,-0.1778,-0.1728,-0.1655,-0.1601,-0.177,-0.1754,-0.1526,-0.153,-0.1424,-0.1418,-0.1414,-0.141,-0.1407,0,-0.1258,-0.128,-0.139,-0.1416,-0.1465,-0.1532,-0.1561,-0.1661,-0.1677,-0.1739,-0.1721,-0.1724,-0.1732,-0.1562,-0.1596,-0.1519,-0.1509,-0.1469,-0.1518,-0.1499,-0.1482,-0.1493,-0.1502,-0.1399,-0.1398,-0.1397,-0.1396,0,-0.1189,-0.124,-0.128,-0.1336,-0.1381,-0.142,-0.1476,-0.1476,-0.1556,-0.1642,-0.1581,-0.1548,-0.1486,-0.1454,-0.1398,-0.1356,-0.1498,-0.1421,-0.1432,-0.1477,-0.1469,-0.1458,-0.1473,-0.138,-0.1382,-0.1384,-0.1385,0,-0.1132,-0.114,-0.1198,-0.1231,-0.1283,-0.1284,-0.1332,-0.1334,-0.1364,-0.1441,-0.1405,-0.1406,-0.1451,-0.1364,-0.1314,-0.1256,-0.1249,-0.1226,-0.1246,-0.1264,-0.1247,-0.1215,-0.1003,0,0,0,0,0,-0.1067,-0.106,-0.1085,-0.1111,-0.1156,-0.1186,-0.1256,-0.1303,-0.1378,-0.1287,-0.1347,-0.1278,-0.1204,-0.1221,-0.1124,-0.1244,-0.1258,-0.1129,-0.1245,-0.1292,-0.131,-0.1306,0,0,0,0,0,0,-0.102,-0.104,-0.1045,-0.1002,-0.0992,-0.1024,-0.1062,-0.1117,-0.1085,-0.1165,-0.1129,-0.1194,-0.1142,-0.1221,-0.1092,-0.1094,-0.1139,-0.1145,-0.1141,-0.1282,-0.1298,-0.1313,-0.1315,0,0,0,0,0]},{"header":{"parameterUnit":"m.s-1","parameterCategory":2,"la1":30.2991,"la2":30.254,"lo1":-89.0895,"lo2":-89.0444,"dy":0.0017,"dx":0.0017,"nx":28,"ny":28,"refTime":"2024-02-07T03:00:00:Z","depth":"4","parameterNumber":3,"parameterNumberName":"V-component_of_CURRENTS"},"data":[0,0,0,0,0,0,0,0,0,0,0,0,0,0,0,0,0,0,0,0,0,0,0,0,0,0,0,0,0,0,0,0,0,0,0,0,0,0,0,0,0,0,0,0,0,0,0,0,0,0,0,0,0,0,0,0,0,0,-0.0202,-0.0202,0,-0.0174,-0.0174,-0.0173,-0.0149,-0.0149,-0.0149,-0.0149,-0.007,-0.0068,-0.0066,0,0,0,0,0,0,0,0,0,0,0,0,0,-0.0202,-0.0203,-0.0202,-0.0202,-0.0202,-0.0174,-0.0174,-0.0173,-0.0149,-0.0149,-0.0149,-0.0149,-0.007,-0.0068,-0.0066,0,0,0,0,0,0,0,0,0,0,0,0,0,-0.0191,-0.0203,-0.0202,-0.0187,-0.0185,-0.0174,-0.0174,-0.0173,-0.0149,-0.0149,-0.0149,-0.0148,-0.0071,-0.0068,-0.0065,-0.0054,0,0,-0.0057,-0.0055,0,0,0,0,0,0,0,0,-0.0191,-0.019,-0.0189,-0.0188,-0.0186,-0.0165,-0.0145,-0.0131,-0.0149,-0.0162,-0.0149,-0.0148,-0.0098,-0.0093,-0.0088,-0.005,-0.0046,-0.0056,-0.0055,-0.0053,-0.0053,0,0,0,0,0,0,0,-0.0192,-0.0191,-0.019,-0.0189,-0.0187,-0.017,-0.0168,-0.0142,-0.013,-0.0161,-0.0159,-0.0158,-0.0096,-0.0091,-0.0085,-0.0045,-0.0056,-0.0054,-0.0052,-0.0051,0.0008,0.0008,0,0,0,0,0,0,-0.0199,-0.0192,-0.0191,-0.0189,-0.0189,-0.0171,-0.0169,-0.0172,-0.0132,-0.0126,-0.0158,-0.0157,-0.0096,-0.0089,-0.0082,-0.0071,-0.0053,-0.0051,-0.0049,0.0008,0.0008,0.0008,0,0,0,0,0,0,-0.02,-0.02,-0.0192,-0.019,-0.0188,-0.0171,-0.0175,-0.0171,-0.0168,-0.013,-0.0123,-0.0159,-0.0095,-0.0087,-0.0065,-0.0068,-0.0049,-0.0047,0.0008,0.0008,0.0008,-0.0045,0,0,0,0,0,0,-0.02,-0.02,-0.0207,-0.0191,-0.0189,-0.0192,-0.0175,-0.0171,-0.0168,-0.0166,-0.0128,-0.0121,-0.0094,-0.0069,-0.0062,-0.0063,-0.0044,0.0008,0.0008,0.0008,-0.0043,-0.0047,-0.0051,0,0,0,0,0,-0.02,-0.0211,-0.0207,-0.0207,-0.0198,-0.0193,-0.019,-0.0176,-0.0168,-0.0171,-0.0146,-0.0122,-0.0066,-0.0067,-0.0059,-0.0059,0.0009,0.0008,0.0008,-0.0042,-0.0046,-0.0051,0,0,0,0,0,0,-0.0215,-0.0209,-0.0205,-0.0214,-0.0207,-0.0189,-0.0191,-0.0181,-0.0164,-0.0162,-0.0124,-0.0115,-0.0098,-0.0071,-0.0074,-0.0043,-0.0024,-0.0023,-0.0065,-0.0069,-0.0073,-0.0082,-0.0042,0,0,0,0,0,-0.0222,-0.023,-0.0219,-0.0227,-0.0225,-0.0209,-0.0206,-0.0197,-0.018,-0.0173,-0.0147,-0.0118,-0.0093,-0.0076,-0.0052,-0.0034,-0.0003,-0.0028,-0.0031,-0.0035,-0.0037,0.0009,0.0009,0.0006,0.0006,0.0006,0,0,-0.023,-0.0228,-0.0233,-0.0231,-0.0224,-0.0229,-0.0207,-0.0207,-0.0208,-0.0166,-0.016,-0.0132,-0.0092,-0.0075,-0.0065,-0.0052,-0.0019,-0.0035,-0.0039,-0.0038,0.0009,0.0009,0.0009,0.0006,0.0006,0.0006,0,0,-0.0252,-0.0249,-0.0264,-0.0261,-0.0257,-0.0247,-0.025,-0.0236,-0.0227,-0.0218,-0.0187,-0.0162,-0.0127,-0.0097,-0.0077,-0.0085,-0.0044,-0.0078,-0.0099,-0.0055,-0.0055,-0.0054,-0.0022,-0.0018,-0.0075,-0.0076,-0.0076,0,-0.0262,-0.0279,-0.0267,-0.0279,-0.0282,-0.0259,-0.0274,-0.0261,-0.0242,-0.0233,-0.0223,-0.017,-0.0136,-0.0106,-0.011,-0.0093,-0.0066,-0.0087,-0.006,-0.0059,-0.0057,-0.0024,-0.0019,-0.0078,-0.0078,-0.0078,-0.0077,0,-0.0293,-0.0307,-0.0315,-0.0325,-0.0325,-0.0334,-0.0318,-0.0312,-0.0298,-0.0281,-0.0255,-0.021,-0.0176,-0.0161,-0.0138,-0.0109,-0.0095,-0.0075,-0.0051,-0.006,-0.0025,-0.0018,-0.0082,-0.0081,-0.008,-0.0079,0,0,-0.0315,-0.0335,-0.0338,-0.0352,-0.0352,-0.0356,-0.0357,-0.0348,-0.0345,-0.0316,-0.0305,-0.0259,-0.0232,-0.0207,-0.0169,-0.0129,-0.0095,-0.0102,-0.0098,-0.0074,-0.0007,-0.0012,-0.0005,-0.007,-0.0069,-0.0069,0.0009,0,-0.0343,-0.0381,-0.038,-0.0412,-0.043,-0.0411,-0.0417,-0.0403,-0.0379,-0.036,-0.0305,-0.0281,-0.0249,-0.0232,-0.0188,-0.0117,-0.0079,-0.0118,0.0002,0.0005,-0.0001,0.0003,-0.0065,0.0014,0.0016,0.0017,0.0017,0,-0.0373,-0.0396,-0.0438,-0.0461,-0.0467,-0.0481,-0.048,-0.0478,-0.044,-0.0419,-0.0378,-0.0335,-0.0275,-0.0246,-0.0131,-0.0159,-0.0091,-0.0035,-0.003,-0.0011,0.0013,0.0028,0.003,0.0029,0.0028,0.0027,0.0026,0,-0.0398,-0.0433,-0.0471,-0.0479,-0.0502,-0.0514,-0.052,-0.0499,-0.0496,-0.0451,-0.0438,-0.0364,-0.032,-0.0231,-0.0118,-0.0123,0.0012,0.0024,0.0084,0.0084,0.0088,0.0087,0.0106,0.0106,0.0106,0.0106,0.0105,0,-0.0426,-0.0455,-0.0489,-0.051,-0.0553,-0.0551,-0.0577,-0.0566,-0.0544,-0.0535,-0.0471,-0.0437,-0.0313,-0.0221,-0.0126,-0.0003,0.001,0.008,0.0106,0.0063,0.0058,0.0093,0.009,0.0109,0.0108,0.0107,0.0107,0,-0.0446,-0.0468,-0.0516,-0.0554,-0.057,-0.0599,-0.0625,-0.0633,-0.0608,-0.059,-0.0577,-0.0481,-0.0358,-0.0234,-0.0075,-0.0011,0.0106,0.0149,0.0086,0.0108,0.0149,0.0142,0.0215,0.0215,0.0216,0.0216,0.0217,0,-0.0459,-0.0487,-0.0553,-0.0586,-0.0608,-0.0648,-0.0675,-0.0669,-0.0666,-0.061,-0.0596,-0.0482,-0.0404,-0.018,-0.0059,0.0116,0.0142,0.0188,0.0171,0.0143,0.0161,0.0154,0.0148,0.0217,0.0217,0.0218,0.0218,0,-0.0482,-0.051,-0.055,-0.062,-0.0664,-0.0706,-0.0733,-0.0734,-0.0709,-0.0692,-0.0587,-0.0472,-0.0331,-0.0168,-0.003,0.0093,0.0146,0.0193,0.0193,0.0177,0.0147,0.0163,0.0156,0.0219,0.0219,0.0219,0.0219,0,-0.0497,-0.0532,-0.0587,-0.0644,-0.0703,-0.0737,-0.0753,-0.073,-0.072,-0.0646,-0.0609,-0.0455,-0.0363,-0.0179,-0.0053,0.0067,0.0092,0.0116,0.012,0.012,0.0064,0.001,0.0065,0,0,0,0,0,-0.0504,-0.0543,-0.0601,-0.0664,-0.0721,-0.0747,-0.0777,-0.0777,-0.0753,-0.0677,-0.0637,-0.0498,-0.0294,-0.0204,-0.0081,-0.0064,0.0093,0.0079,0.0117,0.0228,0.0226,0.0176,0,0,0,0,0,0,-0.0511,-0.0568,-0.0598,-0.0663,-0.0701,-0.0755,-0.0771,-0.0756,-0.0703,-0.0659,-0.054,-0.048,-0.0276,-0.0351,-0.0077,-0.0044,-0.0008,0.0177,0.0178,0.0229,0.0227,0.0226,0.0174,0,0,0,0,0]}]]